When you browse on this site, cookies collect data to enhance your experience and personalize the content and advertising you see.
Visit our Privacy Policy to learn more. By continuing to use the site, you agree to this use of cookies and data.
  • In Austria
  • List of Countries
  • For 7 days
  • Water Temperature
  • Weather Map
  • News
  • Weather Widgets
  • user-avatar
    Login

    Hourly Weather Gorkovskoe

    Today, 22 November, Friday

    Time Temperature Precipitation Wind Pressure Humidity
    00:00 -14°C° 0 mm 1 mps 760 mmHg 83%
    01:00 -14°C° 0 mm 1 mps 759 mmHg 83%
    02:00 -14°C° 0 mm 1 mps 759 mmHg 81%
    03:00 -14°C° 0 mm 1 mps 759 mmHg 80%
    04:00 -16°C° 0 mm 2 mps 759 mmHg 78%
    05:00 -15°C° 0 mm 2 mps 758 mmHg 77%
    06:00 -15°C° 0 mm 2 mps 758 mmHg 77%
    07:00 -13°C° 0 mm 1 mps 758 mmHg 76%
    08:00 -13°C° 0 mm 1 mps 758 mmHg 75%
    09:00 -14°C° 0 mm 2 mps 758 mmHg 74%
    10:00 -13°C° 0 mm 2 mps 758 mmHg 73%
    11:00 -10°C° 0 mm 1 mps 758 mmHg 71%
    12:00 -9°C° 0 mm 1 mps 758 mmHg 68%
    13:00 -8°C° 0 mm 1 mps 757 mmHg 66%
    14:00 -9°C° 0 mm 1 mps 757 mmHg 69%
    15:00 -10°C° 0 mm 1 mps 757 mmHg 73%
    16:00 -10°C° 0 mm 1 mps 757 mmHg 75%
    17:00 -11°C° 0 mm 1 mps 757 mmHg 75%
    18:00 -11°C° 0 mm 1 mps 756 mmHg 75%
    19:00 -11°C° 0 mm 0 mps 756 mmHg 74%
    20:00 -11°C° 0 mm 0 mps 756 mmHg 73%
    21:00 -11°C° 0 mm 0 mps 757 mmHg 72%
    22:00 -11°C° 0 mm 0 mps 757 mmHg 71%
    23:00 -11°C° 0 mm 0 mps 757 mmHg 72%

    Tomorrow, 23 November, Saturday

    Time Temperature Precipitation Wind Pressure Humidity
    00:00 -11°C° 0 mm 0 mps 757 mmHg 72%
    01:00 -11°C° 0 mm 0 mps 756 mmHg 72%
    02:00 -11°C° 0 mm 1 mps 756 mmHg 72%
    03:00 -11°C° 0 mm 1 mps 756 mmHg 72%
    04:00 -11°C° 0 mm 1 mps 756 mmHg 72%
    05:00 -11°C° 0 mm 1 mps 756 mmHg 73%
    06:00 -11°C° 0 mm 1 mps 756 mmHg 74%
    07:00 -11°C° 0 mm 0 mps 756 mmHg 75%
    08:00 -10°C° 0 mm 1 mps 756 mmHg 74%
    09:00 -9°C° 0 mm 1 mps 756 mmHg 73%
    10:00 -9°C° 0 mm 1 mps 756 mmHg 72%
    11:00 -8°C° 0 mm 1 mps 755 mmHg 73%
    12:00 -8°C° 0 mm 2 mps 755 mmHg 74%
    13:00 -8°C° 0 mm 2 mps 754 mmHg 74%
    14:00 -8°C° 0 mm 2 mps 754 mmHg 77%
    15:00 -9°C° 0 mm 3 mps 754 mmHg 80%
    16:00 -10°C° 0 mm 3 mps 753 mmHg 83%
    17:00 -10°C° 0 mm 3 mps 753 mmHg 85%
    18:00 -10°C° 0 mm 3 mps 753 mmHg 88%
    19:00 -12°C° 0 mm 3 mps 752 mmHg 90%
    20:00 -12°C° 0 mm 3 mps 752 mmHg 91%
    21:00 -12°C° 0 mm 3 mps 752 mmHg 92%
    22:00 -12°C° 0 mm 3 mps 752 mmHg 93%
    23:00 -12°C° 0 mm 3 mps 751 mmHg 93%

    Day after tomorrow, 24 November, Sunday

    Time Temperature Precipitation Wind Pressure Humidity
    00:00 -12°C° 0 mm 3 mps 751 mmHg 93%
    01:00 -12°C° 0 mm 3 mps 751 mmHg 93%
    02:00 -13°C° 0 mm 3 mps 751 mmHg 92%
    03:00 -13°C° 0 mm 3 mps 751 mmHg 90%
    04:00 -14°C° 0 mm 3 mps 751 mmHg 88%
    05:00 -14°C° 0 mm 3 mps 751 mmHg 88%
    06:00 -14°C° 0 mm 3 mps 751 mmHg 87%
    07:00 -13°C° 0 mm 2 mps 751 mmHg 86%
    08:00 -12°C° 0 mm 2 mps 751 mmHg 84%
    09:00 -10°C° 0 mm 2 mps 751 mmHg 82%
    10:00 -9°C° 0 mm 1 mps 752 mmHg 81%
    11:00 -8°C° 0 mm 1 mps 752 mmHg 79%
    12:00 -7°C° 0 mm 1 mps 751 mmHg 78%
    13:00 -6°C° 0 mm 1 mps 751 mmHg 77%
    14:00 -7°C° 0 mm 1 mps 751 mmHg 79%
    15:00 -8°C° 0 mm 2 mps 751 mmHg 81%
    16:00 -9°C° 0 mm 2 mps 752 mmHg 83%
    17:00 -9°C° 0 mm 2 mps 752 mmHg 84%
    18:00 -9°C° 0 mm 1 mps 752 mmHg 84%
    19:00 -9°C° 0 mm 1 mps 752 mmHg 85%
    20:00 -9°C° 0 mm 1 mps 752 mmHg 85%
    21:00 -9°C° 0 mm 1 mps 752 mmHg 84%
    22:00 -9°C° 0 mm 1 mps 752 mmHg 84%
    23:00 -9°C° 0 mm 1 mps 752 mmHg 84%

    25 November, Monday

    Time Temperature Precipitation Wind Pressure Humidity
    00:00 -9°C° 0 mm 1 mps 752 mmHg 84%
    01:00 -10°C° 0 mm 1 mps 752 mmHg 84%
    02:00 -10°C° 0 mm 1 mps 752 mmHg 85%
    03:00 -10°C° 0 mm 1 mps 752 mmHg 85%
    04:00 -10°C° 0 mm 1 mps 752 mmHg 85%
    05:00 -10°C° 0 mm 1 mps 752 mmHg 85%
    06:00 -10°C° 0 mm 1 mps 752 mmHg 86%
    07:00 -10°C° 0 mm 1 mps 752 mmHg 87%
    08:00 -9°C° 0 mm 1 mps 753 mmHg 86%
    09:00 -9°C° 0 mm 0 mps 753 mmHg 86%
    10:00 -8°C° 0 mm 0 mps 753 mmHg 85%
    11:00 -7°C° 0 mm 0 mps 753 mmHg 84%
    12:00 -7°C° 0 mm 0 mps 753 mmHg 83%
    13:00 -6°C° 0 mm 1 mps 753 mmHg 82%
    14:00 -7°C° 0 mm 1 mps 753 mmHg 84%
    15:00 -8°C° 0 mm 1 mps 752 mmHg 86%
    16:00 -9°C° 0 mm 1 mps 752 mmHg 89%
    17:00 -9°C° 0 mm 1 mps 752 mmHg 89%
    18:00 -9°C° 0 mm 1 mps 752 mmHg 90%
    19:00 -9°C° 0 mm 1 mps 752 mmHg 91%
    20:00 -10°C° 0 mm 1 mps 752 mmHg 91%
    21:00 -10°C° 0 mm 1 mps 752 mmHg 92%
    22:00 -10°C° 0 mm 1 mps 752 mmHg 92%
    23:00 -10°C° 0 mm 1 mps 752 mmHg 93%

    26 November, Tuesday

    Time Temperature Precipitation Wind Pressure Humidity
    00:00 -10°C° 0 mm 1 mps 752 mmHg 93%
    01:00 -11°C° 0 mm 1 mps 752 mmHg 93%
    02:00 -11°C° 0 mm 1 mps 752 mmHg 93%
    03:00 -11°C° 0 mm 1 mps 752 mmHg 93%
    04:00 -11°C° 0 mm 1 mps 752 mmHg 92%
    05:00 -11°C° 0 mm 1 mps 752 mmHg 92%
    06:00 -11°C° 0 mm 1 mps 752 mmHg 92%
    07:00 -13°C° 0 mm 2 mps 751 mmHg 92%
    08:00 -12°C° 0 mm 2 mps 752 mmHg 91%
    09:00 -10°C° 0 mm 2 mps 752 mmHg 91%
    10:00 -12°C° 0 mm 3 mps 752 mmHg 90%
    11:00 -10°C° 0 mm 3 mps 752 mmHg 89%
    12:00 -9°C° 0 mm 3 mps 751 mmHg 87%
    13:00 -8°C° 0 mm 3 mps 751 mmHg 86%
    14:00 -9°C° 0 mm 3 mps 751 mmHg 86%
    15:00 -10°C° 0 mm 4 mps 751 mmHg 87%
    16:00 -11°C° 0 mm 4 mps 751 mmHg 87%
    17:00 -11°C° 0 mm 4 mps 751 mmHg 86%
    18:00 -11°C° 0 mm 4 mps 751 mmHg 85%
    19:00 -12°C° 0 mm 4 mps 751 mmHg 84%
    20:00 -12°C° 0 mm 4 mps 751 mmHg 83%
    21:00 -12°C° 0 mm 4 mps 751 mmHg 83%
    22:00 -14°C° 0 mm 4 mps 751 mmHg 83%
    23:00 -14°C° 0 mm 4 mps 751 mmHg 82%

    27 November, Wednesday

    Time Temperature Precipitation Wind Pressure Humidity
    00:00 -14°C° 0 mm 4 mps 751 mmHg 80%
    01:00 -13°C° 0 mm 3 mps 751 mmHg 79%
    02:00 -13°C° 0 mm 3 mps 751 mmHg 77%
    03:00 -13°C° 0 mm 3 mps 751 mmHg 76%
    04:00 -13°C° 0 mm 3 mps 751 mmHg 75%
    05:00 -13°C° 0 mm 3 mps 751 mmHg 74%
    06:00 -13°C° 0 mm 3 mps 752 mmHg 73%
    07:00 -13°C° 0 mm 3 mps 752 mmHg 72%
    08:00 -13°C° 0 mm 3 mps 752 mmHg 72%
    09:00 -12°C° 0 mm 3 mps 752 mmHg 71%
    10:00 -10°C° 0 mm 3 mps 753 mmHg 71%
    11:00 -10°C° 0 mm 3 mps 753 mmHg 71%
    12:00 -9°C° 0 mm 3 mps 753 mmHg 70%
    13:00 -8°C° 0 mm 3 mps 753 mmHg 70%
    14:00 -9°C° 0 mm 3 mps 753 mmHg 73%
    15:00 -9°C° 0 mm 3 mps 753 mmHg 75%
    16:00 -10°C° 0 mm 3 mps 753 mmHg 77%
    17:00 -12°C° 0 mm 3 mps 753 mmHg 77%
    18:00 -12°C° 0 mm 3 mps 753 mmHg 77%
    19:00 -10°C° 0 mm 2 mps 754 mmHg 76%
    20:00 -10°C° 0 mm 2 mps 754 mmHg 76%
    21:00 -10°C° 0 mm 2 mps 754 mmHg 75%
    22:00 -12°C° 0 mm 2 mps 754 mmHg 74%
    23:00 -10°C° 0 mm 2 mps 754 mmHg 72%
    Show more